weather.gov     
National Weather Service

Terminal Aerodrome Forecast
NWS Homepage
This page is being discontinued on March 12, 2014.
The same data is available at this site. Please update your bookmarks.
Thank you, and we apologize for the inconvenience.
Please send an email to SR-SRH.Webmaster@noaa.gov with any concerns.


Current Version
Previous Version:    01  02  03  04  05  06  07  08  09  10  11  12  13  14  15  16  17  18  19  20  21  22  23  24  25  26  27  28  29  
[Printable]
155
FTAK31 PAJN 280500
TAFASI
TAF
PASI 280531Z 2806/2906 10009KT P6SM OVC045
     FM281100 11010G15KT 6SM -SN OVC040
     FM281300 12010G20KT 6SM -SNRA FEW025 OVC040
     FM281500 11015G25KT 6SM -RA BR BKN025 OVC040 WS020/13030KT
     FM290000 12015G30KT 5SM -RA BR SCT015 OVC025 WS020/14035KT=


U.S. Dept. of Commerce
NOAA National Weather Service
1325 East West Highway
Silver Spring, MD 20910
E-mail: w-nws.webmaster@noaa.gov
Page last modified: May 16, 2007
NATIONAL WEATHER SERVICE: for Safety, for Work, for Fun - FOR LIFE